• In Belarus
  • List of Countries
  • For 7 days
  • Water Temperature
  • Satellite Maps
  • Weather Map
  • Weather Widgets
  • user-avatar
    Login

    Hourly Weather Salzburg

    Today, 26 September, Wednesday

    Time Temperature Precipitation Wind Pressure Humidity
    00:00 -2°C° 0 mm 1 mps 636 mmHg 80%
    01:00 -3°C° 0 mm 1 mps 636 mmHg 78%
    02:00 -2°C° 0 mm 1 mps 636 mmHg 70%
    03:00 -2°C° 0 mm 1 mps 635 mmHg 63%
    04:00 -2°C° 0 mm 1 mps 635 mmHg 56%
    05:00 -2°C° 0 mm 1 mps 635 mmHg 50%
    06:00 -1°C° 0 mm 1 mps 636 mmHg 44%
    07:00 0°C° 0 mm 1 mps 636 mmHg 38%
    08:00 +4°C° 0 mm 1 mps 637 mmHg 34%
    09:00 +7°C° 0 mm 1 mps 638 mmHg 31%
    10:00 +11°C° 0 mm 1 mps 639 mmHg 27%
    11:00 +12°C° 0 mm 1 mps 639 mmHg 27%
    12:00 +13°C° 0 mm 1 mps 640 mmHg 26%
    13:00 +14°C° 0 mm 1 mps 640 mmHg 26%
    14:00 +14°C° 0 mm 1 mps 639 mmHg 32%
    15:00 +13°C° 0 mm 1 mps 639 mmHg 38%
    16:00 +13°C° 0 mm 1 mps 638 mmHg 44%
    17:00 +10°C° 0 mm 1 mps 637 mmHg 54%
    18:00 +7°C° 0 mm 1 mps 636 mmHg 64%
    19:00 +4°C° 0 mm 1 mps 635 mmHg 74%
    20:00 +4°C° 0 mm 1 mps 636 mmHg 69%
    21:00 +4°C° 0 mm 1 mps 636 mmHg 65%
    22:00 +4°C° 0 mm 1 mps 636 mmHg 60%
    23:00 +3°C° 0 mm 1 mps 636 mmHg 56%

    Tomorrow, 27 September, Thursday

    Time Temperature Precipitation Wind Pressure Humidity
    00:00 +3°C° 0 mm 1 mps 636 mmHg 51%
    01:00 +3°C° 0 mm 1 mps 636 mmHg 46%
    02:00 +3°C° 0 mm 1 mps 635 mmHg 45%
    03:00 +3°C° 0 mm 1 mps 635 mmHg 43%
    04:00 +3°C° 0 mm 1 mps 635 mmHg 41%
    05:00 +3°C° 0 mm 1 mps 635 mmHg 42%
    06:00 +4°C° 0 mm 1 mps 635 mmHg 43%
    07:00 +4°C° 0 mm 1 mps 635 mmHg 43%
    08:00 +8°C° 0 mm 1 mps 636 mmHg 40%
    09:00 +11°C° 0 mm 1 mps 637 mmHg 36%
    10:00 +13°C° 0 mm 0 mps 638 mmHg 32%
    11:00 +15°C° 0 mm 1 mps 638 mmHg 32%
    12:00 +16°C° 0 mm 1 mps 638 mmHg 32%
    13:00 +18°C° 0 mm 1 mps 638 mmHg 33%
    14:00 +16°C° 0 mm 1 mps 637 mmHg 38%
    15:00 +15°C° 0 mm 1 mps 636 mmHg 44%
    16:00 +15°C° 0 mm 1 mps 636 mmHg 50%
    17:00 +12°C° 0 mm 1 mps 634 mmHg 59%
    18:00 +9°C° 0 mm 1 mps 633 mmHg 67%
    19:00 +6°C° 0 mm 1 mps 632 mmHg 75%
    20:00 +6°C° 0 mm 1 mps 632 mmHg 74%
    21:00 +6°C° 0 mm 1 mps 632 mmHg 73%
    22:00 +6°C° 0 mm 1 mps 632 mmHg 71%
    23:00 +6°C° 0 mm 1 mps 631 mmHg 71%

    Day after tomorrow, 28 September, Friday

    Time Temperature Precipitation Wind Pressure Humidity
    00:00 +5°C° 0 mm 1 mps 631 mmHg 70%
    01:00 +5°C° 0 mm 1 mps 630 mmHg 70%
    02:00 +5°C° 0 mm 1 mps 630 mmHg 70%
    03:00 +5°C° 0 mm 1 mps 630 mmHg 70%
    04:00 +5°C° 0 mm 1 mps 629 mmHg 70%
    05:00 +5°C° 0 mm 1 mps 629 mmHg 69%
    06:00 +5°C° 0 mm 1 mps 629 mmHg 68%
    07:00 +5°C° 0 mm 1 mps 629 mmHg 67%
    08:00 +8°C° 0 mm 1 mps 630 mmHg 60%
    09:00 +11°C° 0 mm 1 mps 631 mmHg 52%
    10:00 +14°C° 0 mm 1 mps 632 mmHg 44%
    11:00 +14°C° 0 mm 1 mps 632 mmHg 44%
    12:00 +15°C° 0 mm 1 mps 631 mmHg 43%
    13:00 +16°C° 0 mm 1 mps 631 mmHg 42%
    14:00 +15°C° 0 mm 1 mps 631 mmHg 47%
    15:00 +15°C° 0 mm 1 mps 630 mmHg 52%
    16:00 +14°C° 0 mm 1 mps 629 mmHg 57%
    17:00 +11°C° 0 mm 1 mps 629 mmHg 69%
    18:00 +9°C° 0 mm 1 mps 628 mmHg 80%
    19:00 +5°C° 0 mm 0 mps 627 mmHg 91%
    20:00 +6°C° 0 mm 1 mps 627 mmHg 93%
    21:00 +6°C° 0 mm 1 mps 628 mmHg 94%
    22:00 +6°C° 0 mm 1 mps 628 mmHg 95%
    23:00 +6°C° 0 mm 1 mps 628 mmHg 95%

    29 September, Saturday

    Time Temperature Precipitation Wind Pressure Humidity
    00:00 +6°C° 0 mm 1 mps 628 mmHg 96%
    01:00 +6°C° 0 mm 1 mps 628 mmHg 96%
    02:00 +6°C° 0.1 mm 1 mps 628 mmHg 96%
    03:00 +6°C° 0.1 mm 1 mps 628 mmHg 96%
    04:00 +6°C° 0.1 mm 1 mps 628 mmHg 97%
    05:00 +6°C° 0.7 mm 1 mps 628 mmHg 97%
    06:00 +6°C° 0.7 mm 1 mps 628 mmHg 97%
    07:00 +4°C° 0.7 mm 2 mps 628 mmHg 97%
    08:00 +4°C° 0.8 mm 2 mps 629 mmHg 97%
    09:00 +4°C° 0.8 mm 2 mps 629 mmHg 97%
    10:00 +3°C° 0.8 mm 2 mps 629 mmHg 96%
    11:00 +3°C° 0.3 mm 2 mps 629 mmHg 95%
    12:00 +4°C° 0.3 mm 2 mps 629 mmHg 93%
    13:00 +4°C° 0.3 mm 2 mps 629 mmHg 91%
    14:00 +4°C° 0.2 mm 2 mps 629 mmHg 90%
    15:00 +4°C° 0.2 mm 2 mps 629 mmHg 89%
    16:00 +3°C° 0.2 mm 2 mps 629 mmHg 88%
    17:00 +4°C° 0.1 mm 1 mps 629 mmHg 90%
    18:00 +3°C° 0.1 mm 1 mps 629 mmHg 92%
    19:00 +2°C° 0.1 mm 1 mps 630 mmHg 94%
    20:00 +1°C° 0 mm 1 mps 630 mmHg 94%
    21:00 +1°C° 0 mm 1 mps 629 mmHg 94%
    22:00 0°C° 0 mm 1 mps 629 mmHg 94%
    23:00 -1°C° 0 mm 1 mps 629 mmHg 94%

    30 September, Sunday

    Time Temperature Precipitation Wind Pressure Humidity
    00:00 -1°C° 0 mm 1 mps 629 mmHg 94%
    01:00 -2°C° 0 mm 1 mps 628 mmHg 94%
    02:00 -2°C° 0 mm 1 mps 628 mmHg 93%
    03:00 -2°C° 0 mm 1 mps 628 mmHg 92%
    04:00 -2°C° 0 mm 1 mps 627 mmHg 91%
    05:00 -2°C° 0 mm 1 mps 628 mmHg 88%
    06:00 -2°C° 0 mm 1 mps 628 mmHg 85%
    07:00 -1°C° 0 mm 1 mps 628 mmHg 82%
    08:00 +2°C° 0 mm 1 mps 628 mmHg 70%
    09:00 +5°C° 0 mm 1 mps 629 mmHg 59%
    10:00 +7°C° 0 mm 1 mps 630 mmHg 47%
    11:00 +9°C° 0 mm 1 mps 630 mmHg 43%
    12:00 +9°C° 0 mm 2 mps 630 mmHg 39%
    13:00 +10°C° 0 mm 2 mps 630 mmHg 35%
    14:00 +10°C° 0 mm 2 mps 629 mmHg 39%
    15:00 +9°C° 0 mm 2 mps 629 mmHg 44%
    16:00 +9°C° 0 mm 2 mps 628 mmHg 48%
    17:00 +7°C° 0 mm 1 mps 627 mmHg 58%
    18:00 +4°C° 0 mm 1 mps 626 mmHg 69%
    19:00 +2°C° 0 mm 1 mps 626 mmHg 79%
    20:00 +1°C° 0 mm 1 mps 625 mmHg 78%
    21:00 +1°C° 0 mm 1 mps 625 mmHg 76%
    22:00 +1°C° 0 mm 1 mps 625 mmHg 75%
    23:00 +1°C° 0 mm 1 mps 625 mmHg 74%

    1 October, Monday

    Time Temperature Precipitation Wind Pressure Humidity
    00:00 +1°C° 0 mm 1 mps 625 mmHg 73%
    01:00 +1°C° 0 mm 1 mps 624 mmHg 72%
    02:00 +1°C° 0 mm 1 mps 624 mmHg 71%
    03:00 +1°C° 0 mm 1 mps 624 mmHg 71%
    04:00 +1°C° 0 mm 1 mps 623 mmHg 71%
    05:00 +1°C° 0 mm 1 mps 623 mmHg 69%
    06:00 +2°C° 0 mm 1 mps 623 mmHg 68%
    07:00 +2°C° 0 mm 1 mps 623 mmHg 67%
    08:00 +5°C° 0 mm 1 mps 624 mmHg 59%
    09:00 +8°C° 0 mm 0 mps 625 mmHg 51%
    10:00 +11°C° 0 mm 0 mps 626 mmHg 43%
    11:00 +12°C° 0 mm 1 mps 625 mmHg 44%
    12:00 +13°C° 0 mm 1 mps 625 mmHg 46%
    13:00 +13°C° 0 mm 2 mps 624 mmHg 47%
    14:00 +12°C° 0.1 mm 2 mps 624 mmHg 54%
    15:00 +10°C° 0.1 mm 2 mps 623 mmHg 61%
    16:00 +10°C° 0.1 mm 2 mps 622 mmHg 69%
    17:00 +9°C° 0.5 mm 1 mps 622 mmHg 77%
    18:00 +7°C° 0.5 mm 1 mps 621 mmHg 86%
    19:00 +5°C° 0.5 mm 1 mps 621 mmHg 94%
    20:00 +5°C° 1.1 mm 1 mps 621 mmHg 95%
    21:00 +5°C° 1.1 mm 1 mps 621 mmHg 96%
    22:00 +5°C° 1.1 mm 1 mps 621 mmHg 96%
    23:00 +4°C° 1.7 mm 1 mps 621 mmHg 97%
    Show more